Globalstar
NORAD ID: 25772
Int'l Code: 1999-031C
Perigee: 1,419.8 km
Apogee: 1,421.7 km
Inclination: 52.0 °
Period: 114.1 minutes
Semi major axis: 7791 km
Launch date: June 10, 1999
Source: Globalstar (GLOB)
Two Line Element Set (TLE):
1 25772U 99031C 13141.04740156 -.00000097 00000-0 38445-4 0 2002
2 25772 051.9967 333.9707 0001184 090.5065 049.6189 12.62266629643241
Source: AFSPC
NASA's NSSDC Master Catalog entry for GLOBALSTAR M047